Temperature
19 19 19 19 20 20 20 20 20 20 20 20 20 19 19 19 19 19 19 18 18 18 18 18 18 18 18 18 18 18 18 18 18 17 17 17 17 17 17 17 17 17 17
20 20 19 19 20 20 20 20 20 20 20 20 20 19 19 19 19 19 19 18 18 18 18 18 18 18 18 18 18 18 18 17 17 17 17 17 17 17 17 17 17 17 17
21 20 19 20 20 20 20 20 20 20 20 20 20 19 19 19 19 19 19 18 18 18 18 18 18 18 18 18 18 17 17 17 17 17 17 17 17 17 17 17 17 17 17
21 20 20 20 20 20 20 20 20 20 20 20 19 19 19 19 19 19 18 18 18 18 18 18 18 18 18 18 17 17 17 17 17 17 17 17 17 17 17 17 17 17 16
21 20 20 20 20 20 20 20 20 20 20 20 19 19 19 19 19 18 18 18 18 18 18 18 18 18 18 17 17 17 17 17 17 17 17 17 17 17 17 17 17 17 16
21 20 20 20 20 20 20 20 20 20 20 20 19 19 19 19 19 18 18 18 18 18 18 18 18 18 17 17 17 17 17 17 17 17 17 17 17 17 17 17 17 17 17
20 20 20 20 20 20 20 20 20 20 20 19 19 19 19 19 18 18 18 18 18 18 18 18 17 17 17 17 17 17 17 17 17 17 17 17 17 17 17 17 17 17 17
21 20 20 20 20 20 20 20 20 20 19 19 19 19 19 18 18 18 18 18 18 18 18 18 17 17 17 17 17 17 17 17 17 17 17 17 17 17 17 17 17 17 17
20 20 20 20 20 20 20 20 20 19 19 19 19 19 18 18 18 18 18 18 18 18 18 17 17 17 17 17 17 17 17 17 17 17 17 17 17 17 17 17 17 17 17
20 20 20 20 20 20 20 19 19 19 19 19 19 18 18 18 18 18 18 18 18 18 18 17 17 17 17 17 17 17 17 17 17 17 17 17 17 17 17 17 17 17 17
19 19 19 19 19 19 19 19 19 19 19 19 18 18 18 18 18 18 18 18 18 18 18 17 17 17 17 17 17 17 17 17 17 17 17 17 17 17 17 17 17 17 17
19 19 19 19 19 19 19 19 19 19 19 18 18 18 18 18 18 18 18 18 18 18 18 17 17 17 17 17 17 17 17 17 17 17 17 17 17 17 17 17 17 17 17
20 19 19 19 19 19 19 19 19 19 18 18 18 18 18 18 18 18 18 18 18 18 18 17 17 17 17 17 17 17 17 17 17 17 17 17 17 17 17 17 17 17 17
19 19 19 19 19 19 19 19 19 19 18 18 18 18 18 18 18 18 18 18 18 18 17 17 17 17 17 17 17 17 17 17 17 17 17 17 17 17 17 17 17 17 17
19 19 19 19 19 19 19 19 19 19 19 18 18 18 18 18 18 18 18 17 17 17 17 17 17 17 17 17 17 17 17 17 17 17 17 17 17 17 17 17 16 16 16
19 19 19 19 19 19 19 19 19 19 18 18 18 18 18 18 18 17 17 17 17 17 17 17 17 17 17 17 17 17 17 17 17 17 17 17 17 17 16 16 16 16 16
19 19 19 19 19 19 19 19 19 19 18 18 18 18 18 17 17 17 17 17 17 17 17 17 17 17 17 17 17 17 17 17 17 17 17 16 16 16 16 16 16 16 16
19 19 19 18 18 19 19 19 19 19 18 18 18 18 18 17 17 17 17 17 17 17 17 17 17 16 16 16 17 16 16 16 16 16 16 16 16 16 16 16 16 16 16
19 19 19 18 19 19 18 18 18 18 18 18 18 18 18 17 17 17 17 17 17 17 17 17 16 16 16 16 16 16 16 16 16 16 16 16 16 16 16 16 16 16 16
18 18 19 18 18 18 18 18 18 18 18 18 18 18 18 17 17 17 17 17 17 17 17 16 16 16 16 16 16 16 16 16 16 16 16 16 16 16 16 16 16 16 16
18 18 18 18 18 18 18 18 18 18 18 18 18 17 17 17 17 17 17 17 17 17 16 16 16 16 16 16 16 16 16 16 16 16 16 16 16 16 16 16 16 16 15
18 17 17 18 18 18 18 18 18 18 18 18 17 17 17 17 17 17 17 17 17 16 16 16 16 16 16 16 16 16 16 16 16 16 16 16 16 16 16 16 16 16 15
17 17 17 17 17 17 17 17 17 17 17 17 17 17 17 17 17 17 17 17 16 16 16 16 16 16 16 16 16 16 16 16 16 16 16 16 16 16 16 16 15 15 15
17 17 17 17 17 17 17 17 17 17 17 17 18 17 17 17 17 17 16 16 16 16 16 16 16 16 16 16 16 16 16 16 16 16 16 16 16 16 16 16 15 15 15
17 17 17 17 17 17 17 17 17 17 17 17 17 17 17 17 17 16 16 16 16 16 16 16 16 16 16 16 16 16 16 16 16 16 16 16 16 16 16 16 15 15 15
17 17 17 17 17 17 17 17 17 17 17 17 17 17 17 17 16 16 16 16 16 16 16 16 16 16 15 15 15 15 15 15 16 16 16 16 16 16 16 15 15 15 15
Wind_Speed
10 13 20 20 19 20 20 21 21 21 20 20 20 19 19 18 17 16 15 14 13 13 12 12 12 12 13 13 13 13 14 14 15 16 16 16 17 17 17 17 17 16 18
15 18 22 21 20 20 20 20 20 20 20 19 19 19 18 17 17 16 15 14 14 13 13 12 12 13 13 13 13 13 13 14 14 15 15 16 16 17 17 17 16 15 17
18 19 22 22 21 20 20 20 20 19 19 19 18 18 17 17 16 15 15 14 14 13 13 13 13 13 13 13 13 13 13 14 14 14 14 13 14 16 16 16 16 16 16
18 18 20 22 22 21 20 19 19 19 18 18 17 17 16 16 15 15 14 14 13 13 13 13 13 13 13 12 12 13 13 13 15 14 11 11 12 15 15 16 16 15 15
16 18 21 24 22 21 20 19 19 18 18 17 16 16 16 15 15 14 14 14 13 13 13 13 13 13 12 12 12 12 12 13 13 12 10 10 11 15 15 15 15 15 15
15 17 21 24 22 21 21 19 19 18 17 16 15 15 15 14 14 14 14 13 13 13 13 12 12 12 11 10 10 10 11 12 12 10 10 10 11 14 14 14 14 14 14
14 15 20 23 22 21 21 19 18 17 17 16 15 14 14 14 13 13 13 13 12 12 12 12 11 11 10 9 8 9 10 12 11 10 9 9 10 13 14 13 13 13 13
16 13 19 23 22 21 20 20 18 17 16 15 15 14 13 13 12 12 12 12 11 11 11 11 10 9 8 7 7 9 11 12 11 10 9 9 11 12 13 13 13 13 12
13 12 12 18 20 21 20 19 18 17 16 15 14 13 13 12 12 11 11 11 11 10 10 9 9 8 7 6 7 8 11 12 11 9 9 8 11 12 12 12 12 12 12
11 10 9 12 15 16 17 19 18 17 16 15 14 13 13 12 11 11 10 10 9 9 8 8 7 7 6 6 6 8 11 12 10 9 8 9 11 11 11 12 11 11 11
12 9 9 9 11 13 14 17 17 17 16 15 14 13 12 9 9 9 8 8 8 8 7 6 6 6 6 5 5 8 9 9 9 7 8 10 11 11 11 11 11 11 10
14 12 9 9 9 11 13 13 12 12 13 12 11 10 9 8 7 7 7 8 7 6 6 5 4 5 5 4 5 7 7 8 7 7 7 10 11 10 10 10 10 10 10
15 14 11 10 9 9 7 9 8 9 9 9 10 9 9 7 5 4 4 3 3 4 3 3 4 4 3 3 4 5 6 6 6 6 7 9 10 10 10 10 10 10 10
14 14 12 11 9 8 7 7 7 7 7 7 8 10 8 5 4 3 3 3 3 3 3 3 3 3 3 3 3 4 5 5 5 5 6 8 9 9 9 10 9 9 9
14 14 13 12 10 8 7 6 7 6 7 8 8 9 9 5 3 3 3 3 3 3 3 2 2 2 2 2 2 3 4 4 4 5 4 7 8 9 9 9 9 9 9
14 14 12 13 11 9 8 7 6 7 8 8 8 9 9 7 5 4 3 3 3 3 3 3 2 2 1 1 1 2 2 3 3 3 3 4 6 7 8 9 9 9 9
13 11 11 12 11 10 9 9 7 8 9 7 8 9 10 9 7 5 3 3 3 4 4 4 3 3 1 1 1 1 1 1 2 2 3 3 4 5 7 8 9 9 9
11 11 11 13 11 10 8 7 6 8 8 8 9 9 10 10 9 7 4 3 4 5 4 3 3 2 2 1 1 1 1 0 1 2 2 2 3 4 5 7 9 9 9
12 13 13 11 11 10 8 6 6 7 7 8 9 8 10 10 10 8 5 4 6 4 3 3 2 2 2 1 1 1 1 1 1 1 2 3 3 4 5 6 7 8 8
11 12 13 11 10 9 7 5 4 5 5 6 7 8 10 10 11 9 6 6 6 4 3 3 3 2 2 1 2 2 2 1 1 1 1 1 2 3 3 3 4 5 6
10 11 12 11 10 10 7 7 6 6 5 4 5 8 10 10 11 9 5 5 5 5 5 5 3 3 2 1 2 2 3 3 2 1 1 0 1 2 2 2 3 3 4
12 12 12 11 11 10 8 6 4 4 3 4 4 5 9 10 10 9 7 6 5 5 5 4 4 3 2 2 2 2 2 3 3 3 1 0 1 1 1 2 2 3 3
11 12 12 12 11 10 8 6 5 4 3 3 3 4 5 9 10 9 9 7 6 5 5 5 5 5 3 1 1 3 3 3 1 2 2 2 1 1 1 1 2 3 3
11 10 9 10 11 11 10 10 9 7 5 5 5 4 4 6 8 9 9 8 6 5 6 5 5 4 4 3 1 1 1 3 2 0 2 2 2 1 1 1 1 2 3
9 10 9 9 10 11 11 12 11 7 5 4 5 6 5 4 6 8 9 8 6 5 6 5 5 4 3 4 3 2 2 2 1 2 1 2 2 1 1 1 2 2 2
7 8 8 8 10 10 11 11 11 10 8 8 7 7 5 4 3 5 7 7 6 5 6 5 5 5 4 4 3 3 3 3 2 2 2 1 1 2 2 2 1 2 3
Wind_Direction
158 159 154 148 140 133 128 124 122 121 120 120 121 123 125 126 127 127 125 122 120 118 115 111 109 111 112 112 112 112 113 115 116 116 116 115 114 112 111 109 108 108 110
151 157 155 150 144 136 131 128 126 124 123 123 124 125 126 127 128 127 126 123 122 119 115 112 111 112 112 113 113 114 116 117 118 118 118 116 115 114 113 112 111 112 111
147 155 155 151 146 140 135 132 130 128 127 126 127 127 128 128 128 127 126 125 124 121 115 112 112 112 114 115 116 116 116 117 118 115 113 113 115 116 116 116 114 114 114
147 152 154 153 148 143 139 136 134 132 130 130 130 130 130 130 130 129 128 127 125 121 118 116 114 113 114 117 118 117 117 116 115 112 109 115 118 120 118 117 117 116 115
146 150 156 154 151 147 143 141 138 136 135 134 133 133 133 133 132 130 129 128 125 121 119 117 116 114 115 117 118 120 120 120 115 110 109 111 117 123 122 121 120 119 118
147 151 159 156 153 150 147 145 143 141 140 138 137 136 136 134 134 133 131 128 126 123 120 118 117 116 115 116 120 124 127 124 117 114 112 116 122 127 126 125 123 121 120
147 153 159 157 156 154 151 148 147 146 144 143 142 140 138 137 136 134 134 131 127 125 123 121 118 116 115 115 122 133 135 131 126 122 120 124 131 132 130 128 126 125 124
151 152 159 159 158 157 155 153 151 151 150 148 147 146 143 142 140 137 137 134 130 128 125 122 118 115 112 110 117 133 137 134 135 134 132 135 138 136 134 132 131 130 128
151 151 156 160 161 160 159 157 156 155 155 154 153 152 149 147 144 143 141 138 135 132 129 124 120 113 105 104 114 131 136 134 136 138 143 144 145 143 140 138 137 135 133
148 153 153 155 157 159 161 162 161 160 159 158 158 157 155 153 151 148 145 144 141 137 134 128 121 112 102 101 111 128 135 132 137 139 145 156 155 150 147 145 143 141 140
158 156 155 152 151 154 158 166 165 164 164 163 163 163 158 150 149 150 154 154 150 145 141 135 126 113 102 96 112 124 127 132 141 143 153 165 164 160 155 153 152 150 149
167 166 162 157 152 155 163 163 162 162 164 162 161 159 147 143 149 154 167 166 162 156 148 140 127 108 97 88 101 118 129 139 144 151 166 173 172 169 165 163 162 161 159
170 171 169 163 158 159 155 154 154 151 153 156 155 151 145 145 150 152 159 160 157 147 120 111 102 96 98 104 108 121 137 144 149 160 176 182 182 180 177 175 173 172 169
173 176 170 166 163 161 154 155 152 150 154 157 159 158 152 151 155 158 163 151 133 119 111 95 88 88 96 108 128 135 143 151 160 171 187 191 191 190 187 186 185 185 182
178 177 172 168 168 165 156 161 160 158 163 164 165 169 168 165 169 172 173 162 154 140 129 114 100 97 91 92 125 146 158 157 174 185 195 196 195 196 195 198 197 197 196
182 179 174 175 172 168 166 164 161 165 167 167 172 178 180 179 175 172 172 168 170 166 153 138 126 113 90 94 109 129 156 166 173 190 200 209 210 210 211 210 208 208 207
182 173 172 174 170 172 171 170 168 170 169 172 178 185 188 187 183 175 167 178 182 166 144 127 109 98 97 94 92 81 116 160 182 206 213 219 230 230 226 224 220 218 218
174 170 174 182 176 177 175 172 166 169 170 174 177 183 188 187 181 172 170 182 176 156 141 129 115 104 96 97 89 60 59 106 212 222 215 218 231 240 239 237 234 229 229
180 174 177 181 176 176 171 166 162 162 168 171 172 176 181 181 179 172 172 172 164 148 142 141 113 122 131 124 116 62 36 14 281 236 221 222 231 242 246 252 247 241 238
183 176 176 175 170 164 159 151 149 151 159 164 168 175 174 175 175 169 166 165 157 143 138 129 123 101 105 118 94 58 24 3 10 337 261 237 230 233 237 246 248 251 246
178 174 176 175 172 166 167 171 170 174 170 167 171 174 173 171 170 165 163 161 159 156 156 145 125 115 90 95 86 40 14 19 24 2 341 308 279 259 237 237 238 239 245
179 177 182 183 175 174 173 167 158 151 160 161 162 165 173 169 168 170 162 165 162 148 144 146 135 126 101 92 120 99 29 359 2 13 3 314 295 310 277 256 234 226 235
180 182 187 184 175 172 164 146 130 111 103 132 163 170 174 171 171 168 168 162 161 157 161 163 154 146 145 97 98 140 147 210 307 344 3 7 343 303 283 281 248 239 234
186 180 178 177 174 171 164 164 167 175 177 185 173 167 161 168 171 169 166 163 162 159 161 170 163 151 145 150 115 81 125 151 153 359 341 354 354 338 317 297 280 262 251
178 174 175 174 179 174 171 174 176 177 172 157 143 152 154 159 170 168 164 162 161 162 165 162 157 157 155 157 158 147 120 89 113 148 209 325 343 336 317 286 264 257 252
170 173 175 175 180 177 174 176 177 173 166 161 158 162 161 159 163 166 164 165 165 163 165 166 163 160 161 154 158 160 160 160 171 157 171 220 286 313 320 309 278 259 253
Height
1506 1510 1514 1517 1520 1522 1523 1525 1527 1528 1530 1531 1532 1534 1535 1536 1537 1538 1540 1541 1542 1543 1544 1545 1546 1547 1547 1548 1549 1550 1551 1552 1553 1553 1554 1555 1556 1558 1559 1560 1561 1562 1564
1503 1509 1513 1517 1520 1522 1524 1526 1528 1529 1531 1532 1534 1535 1537 1538 1539 1540 1541 1543 1544 1545 1546 1547 1547 1548 1549 1550 1551 1552 1553 1554 1555 1556 1557 1558 1559 1560 1561 1562 1563 1565 1566
1503 1508 1513 1517 1520 1523 1525 1527 1529 1531 1532 1534 1535 1537 1538 1540 1541 1542 1543 1544 1545 1546 1547 1548 1549 1550 1551 1552 1553 1554 1555 1556 1557 1558 1559 1560 1561 1562 1563 1565 1566 1567 1568
1504 1508 1513 1517 1521 1523 1526 1528 1530 1532 1534 1535 1537 1538 1540 1541 1543 1544 1545 1546 1547 1548 1549 1550 1551 1552 1553 1554 1555 1556 1557 1558 1559 1560 1561 1562 1563 1565 1566 1567 1568 1569 1570
1505 1509 1514 1518 1521 1524 1527 1529 1531 1533 1535 1537 1538 1540 1542 1543 1544 1545 1547 1548 1549 1550 1551 1552 1553 1554 1555 1556 1557 1558 1559 1560 1561 1562 1563 1565 1566 1567 1568 1569 1570 1571 1572
1505 1510 1514 1518 1522 1525 1527 1530 1532 1534 1536 1538 1540 1542 1543 1545 1546 1547 1548 1550 1551 1552 1553 1554 1555 1556 1557 1558 1559 1560 1561 1562 1563 1564 1566 1567 1568 1569 1570 1571 1572 1573 1575
1505 1510 1515 1519 1522 1525 1528 1531 1533 1536 1538 1540 1541 1543 1545 1546 1548 1549 1550 1551 1552 1553 1554 1556 1557 1558 1559 1560 1561 1562 1563 1564 1565 1566 1567 1569 1570 1571 1572 1573 1574 1575 1577
1506 1511 1515 1519 1523 1526 1529 1531 1534 1536 1539 1541 1543 1545 1546 1548 1549 1551 1552 1553 1554 1555 1556 1558 1559 1560 1561 1562 1563 1564 1565 1566 1567 1568 1569 1570 1571 1573 1574 1575 1576 1577 1578
1508 1511 1515 1519 1523 1526 1529 1532 1534 1537 1539 1542 1544 1546 1547 1549 1551 1552 1553 1555 1556 1557 1558 1559 1561 1562 1563 1564 1565 1566 1567 1568 1569 1570 1571 1572 1573 1574 1575 1577 1578 1579 1580
1508 1512 1515 1519 1522 1526 1529 1532 1535 1537 1540 1542 1545 1547 1549 1550 1552 1553 1555 1556 1557 1558 1560 1561 1562 1563 1564 1565 1566 1567 1568 1569 1570 1571 1572 1573 1574 1576 1577 1578 1579 1580 1581
1508 1512 1515 1519 1522 1526 1529 1532 1535 1538 1540 1543 1545 1548 1550 1551 1553 1555 1556 1557 1559 1560 1561 1562 1563 1564 1566 1567 1568 1569 1569 1570 1571 1572 1573 1574 1576 1577 1578 1579 1580 1581 1582
1504 1509 1514 1518 1521 1525 1529 1532 1535 1538 1540 1543 1545 1548 1550 1552 1554 1555 1557 1559 1560 1561 1562 1563 1565 1566 1567 1568 1569 1570 1571 1571 1573 1573 1574 1576 1577 1578 1579 1580 1581 1582 1583
1502 1508 1512 1517 1521 1525 1528 1531 1534 1537 1540 1543 1546 1548 1551 1553 1554 1556 1558 1559 1560 1562 1563 1564 1565 1567 1568 1569 1570 1571 1571 1572 1573 1574 1575 1576 1577 1579 1580 1581 1582 1583 1584
1501 1506 1510 1515 1519 1524 1527 1531 1534 1537 1540 1543 1546 1549 1551 1553 1555 1557 1558 1560 1561 1562 1564 1565 1566 1567 1569 1570 1571 1571 1572 1573 1574 1575 1576 1577 1578 1579 1580 1581 1582 1583 1585
1499 1503 1508 1513 1518 1522 1526 1530 1533 1537 1540 1543 1546 1549 1551 1553 1555 1557 1559 1560 1562 1563 1564 1565 1567 1568 1569 1570 1571 1572 1573 1573 1574 1576 1576 1577 1578 1579 1580 1581 1582 1584 1585
1497 1502 1506 1511 1516 1521 1525 1529 1533 1536 1540 1543 1546 1549 1551 1554 1556 1557 1559 1560 1562 1563 1564 1566 1567 1568 1569 1571 1571 1572 1573 1574 1575 1576 1577 1578 1578 1579 1580 1581 1582 1583 1585
1497 1501 1505 1510 1515 1520 1524 1528 1532 1536 1539 1542 1545 1548 1551 1553 1555 1557 1559 1560 1562 1563 1565 1566 1567 1568 1569 1570 1571 1572 1573 1574 1575 1576 1577 1577 1578 1579 1580 1581 1582 1583 1583
1495 1499 1505 1510 1514 1519 1523 1528 1531 1535 1538 1542 1545 1547 1550 1553 1555 1557 1558 1560 1562 1563 1564 1566 1567 1568 1569 1570 1571 1572 1572 1573 1574 1575 1576 1577 1578 1579 1580 1580 1581 1582 1583
1492 1497 1502 1507 1512 1518 1522 1527 1530 1534 1538 1541 1544 1546 1549 1552 1554 1556 1558 1560 1561 1563 1564 1566 1567 1568 1569 1570 1570 1571 1572 1573 1574 1575 1575 1577 1577 1578 1579 1580 1580 1581 1581
1490 1495 1500 1505 1511 1516 1521 1525 1529 1533 1536 1540 1542 1545 1548 1550 1553 1555 1557 1559 1561 1562 1564 1565 1566 1567 1568 1569 1570 1570 1571 1572 1573 1574 1575 1576 1577 1578 1578 1579 1579 1580 1580
1488 1492 1497 1503 1508 1513 1517 1522 1526 1530 1534 1538 1541 1544 1546 1549 1552 1554 1556 1558 1560 1561 1563 1564 1565 1567 1568 1569 1570 1570 1571 1572 1572 1573 1574 1575 1576 1577 1577 1578 1578 1579 1579
1485 1489 1495 1500 1505 1510 1515 1520 1524 1529 1532 1536 1540 1542 1545 1548 1550 1553 1555 1557 1558 1560 1561 1563 1564 1566 1567 1568 1569 1570 1570 1572 1572 1573 1573 1574 1575 1576 1576 1577 1577 1578 1578
1483 1487 1491 1497 1502 1507 1513 1518 1523 1527 1531 1534 1538 1540 1543 1546 1549 1551 1553 1555 1557 1559 1560 1561 1563 1564 1565 1567 1568 1569 1570 1570 1571 1572 1572 1573 1574 1574 1575 1576 1576 1576 1577
1481 1485 1489 1494 1499 1504 1510 1514 1519 1523 1527 1531 1535 1538 1541 1544 1547 1550 1552 1554 1556 1557 1559 1560 1561 1563 1564 1565 1566 1567 1569 1569 1570 1570 1571 1572 1572 1573 1574 1574 1575 1575 1575
1480 1483 1487 1491 1496 1501 1507 1511 1516 1521 1525 1529 1532 1536 1539 1542 1545 1548 1550 1552 1554 1555 1557 1558 1560 1561 1562 1563 1564 1565 1566 1567 1568 1569 1569 1570 1571 1571 1572 1572 1573 1573 1573
1479 1482 1486 1489 1493 1499 1503 1508 1513 1518 1522 1526 1529 1533 1537 1540 1543 1546 1548 1550 1552 1554 1555 1556 1558 1559 1560 1561 1563 1564 1565 1565 1566 1567 1568 1568 1569 1570 1570 1571 1571 1571 1572